Weather History for KOSC - May, 2014

Change the Weather History Date:

Saturday, May 10, 2014

  Actual Average Record
Temperature  
Mean Temperature 56 °F -  
Max Temperature 71 °F 60 °F 84 °F (2004)
Min Temperature 41 °F 41 °F 33 °F (1999)
Degree Days  
Heating Degree Days 9    
Growing Degree Days 6 (Base 50)    
Moisture  
Dew Point 38 °F    
Average Humidity 54    
Maximum Humidity 85    
Minimum Humidity 22    
Precipitation  
Precipitation 0.00 in - - ()
Sea Level Pressure  
Sea Level Pressure 29.82 in    
Wind  
Wind Speed 13 mph (WSW)    
Max Wind Speed 24 mph    
Max Gust Speed 33 mph    
Visibility 10 miles    
Events      
Averages and records for this station are not official NWS values.
T = Trace of Precipitation, MM = Missing Value Source: NWS Daily Summary

Daily Weather History Graph

Daily Weather History Graph

Search for Another Location

Airport or City:

Trip Planner

Search our weather history database for the weather conditions in past years. The results will help you decide how hot, cold, wet, or windy it might be!

Date:

Astronomy

May. 10, 2014 Rise Set
Actual Time 6:12 AM EDT 8:48 PM EDT
Civil Twilight 5:38 AM EDT 9:21 PM EDT
Nautical Twilight 4:57 AM EDT 10:03 PM EDT
Astronomical Twilight 4:09 AM EDT 10:51 PM EDT
Moon 4:33 PM EDT (5/10) 3:55 AM EDT (5/10)
Length of Visible Light 15h 42m
Length of Day
14h 36m
Waxing Gibbous, 82% of the Moon is Illuminated
May 10
Waxing Gibbous
May 14
Full
May 21
Last Quarter
May 28
New
Jun 5
First Quarter

Hourly Weather History & Observations

Time (EDT) Temp. Windchill Dew Point Humidity Pressure Visibility Wind Dir Wind Speed Gust Speed Precip Events Conditions
12:14 AM 59.9 °F - 45.5 °F 59% 29.69 in 10.0 mi West 17.3 mph 26.5 mph N/A   Clear
12:33 AM 59.2 °F - 45.0 °F 59% 29.69 in 10.0 mi West 17.3 mph 24.2 mph N/A   Clear
12:53 AM 57.6 °F - 45.5 °F 64% 29.70 in 10.0 mi WSW 9.2 mph 18.4 mph N/A   Clear
1:14 AM 56.1 °F - 46.2 °F 69% 29.71 in 10.0 mi WSW 9.2 mph - N/A   Clear
1:33 AM 54.5 °F - 45.9 °F 73% 29.72 in 10.0 mi WSW 9.2 mph - N/A   Clear
1:53 AM 54.7 °F - 45.7 °F 72% 29.72 in 10.0 mi WSW 10.4 mph - N/A   Clear
2:14 AM 55.0 °F - 45.0 °F 69% 29.72 in 10.0 mi West 11.5 mph 19.6 mph N/A   Clear
2:33 AM 52.3 °F - 44.6 °F 75% 29.72 in 10.0 mi WSW 9.2 mph - N/A   Scattered Clouds
2:53 AM 54.9 °F - 43.3 °F 65% 29.72 in 10.0 mi WSW 11.5 mph - N/A   Mostly Cloudy
3:14 AM 57.0 °F - 41.9 °F 57% 29.73 in 10.0 mi West 17.3 mph 27.6 mph N/A   Overcast
3:33 AM 57.0 °F - 41.9 °F 57% 29.73 in 10.0 mi West 9.2 mph - N/A   Overcast
3:54 AM 55.6 °F - 42.8 °F 62% 29.73 in 10.0 mi SW 8.1 mph - N/A   Overcast
4:14 AM 53.8 °F - 42.8 °F 66% 29.74 in 10.0 mi WSW 13.8 mph 19.6 mph N/A   Scattered Clouds
4:33 AM 53.6 °F - 42.1 °F 65% 29.74 in 10.0 mi WSW 11.5 mph - N/A   Clear
4:54 AM 52.7 °F - 41.5 °F 66% 29.74 in 10.0 mi WSW 13.8 mph 19.6 mph N/A   Clear
5:14 AM 52.7 °F - 41.0 °F 64% 29.75 in 10.0 mi WSW 12.7 mph 23.0 mph N/A   Clear
5:33 AM 51.4 °F - 40.3 °F 66% 29.75 in 10.0 mi WSW 15.0 mph - N/A   Clear
5:54 AM 50.9 °F - 40.1 °F 67% 29.75 in 10.0 mi WSW 11.5 mph - N/A   Clear
6:13 AM 50.4 °F - 40.1 °F 68% 29.75 in 10.0 mi WSW 12.7 mph - N/A   Clear
6:33 AM 50.2 °F - 40.1 °F 68% 29.76 in 10.0 mi WSW 13.8 mph - N/A   Clear
6:54 AM 50.9 °F - 40.3 °F 67% 29.77 in 10.0 mi WSW 13.8 mph - N/A   Clear
7:13 AM 51.8 °F - 40.3 °F 65% 29.78 in 10.0 mi WSW 12.7 mph - N/A   Clear
7:33 AM 53.1 °F - 40.1 °F 61% 29.79 in 10.0 mi WSW 16.1 mph 21.9 mph N/A   Clear
7:54 AM 54.1 °F - 39.6 °F 58% 29.79 in 10.0 mi West 17.3 mph 25.3 mph N/A   Clear
8:13 AM 55.2 °F - 38.5 °F 53% 29.79 in 10.0 mi West 15.0 mph 23.0 mph N/A   Clear
8:34 AM 56.1 °F - 37.2 °F 49% 29.80 in 10.0 mi West 17.3 mph 26.5 mph N/A   Clear
8:54 AM 57.2 °F - 36.5 °F 46% 29.80 in 10.0 mi West 16.1 mph 27.6 mph N/A   Clear
9:13 AM 58.1 °F - 35.1 °F 42% 29.80 in 10.0 mi WNW 24.2 mph 31.1 mph N/A   Clear
9:34 AM 58.5 °F - 34.2 °F 40% 29.80 in 10.0 mi WNW 21.9 mph 31.1 mph N/A   Clear
9:54 AM 60.1 °F - 34.3 °F 38% 29.81 in 10.0 mi West 23.0 mph 31.1 mph N/A   Clear
10:13 AM 60.6 °F - 34.0 °F 37% 29.81 in 10.0 mi West 19.6 mph 32.2 mph N/A   Clear
10:34 AM 61.9 °F - 33.4 °F 34% 29.80 in 10.0 mi West 20.7 mph 29.9 mph N/A   Clear
10:54 AM 63.0 °F - 32.9 °F 32% 29.81 in 10.0 mi West 20.7 mph 29.9 mph N/A   Clear
11:13 AM 63.5 °F - 32.0 °F 31% 29.81 in 10.0 mi West 21.9 mph 29.9 mph N/A   Scattered Clouds
11:34 AM 64.2 °F - 31.1 °F 29% 29.82 in 10.0 mi West 20.7 mph 33.4 mph N/A   Scattered Clouds
11:54 AM 64.9 °F - 31.6 °F 29% 29.81 in 10.0 mi West 16.1 mph 28.8 mph N/A   Clear
12:13 PM 66.0 °F - 32.0 °F 28% 29.81 in 10.0 mi West 18.4 mph 28.8 mph N/A   Clear
12:34 PM 67.3 °F - 31.5 °F 26% 29.82 in 10.0 mi West 20.7 mph 33.4 mph N/A   Clear
12:53 PM 67.6 °F - 31.6 °F 26% 29.81 in 10.0 mi West 18.4 mph 31.1 mph N/A   Clear
1:13 PM 68.5 °F - 31.5 °F 25% 29.81 in 10.0 mi WSW 21.9 mph 27.6 mph N/A   Clear
1:34 PM 68.4 °F - 31.5 °F 25% 29.81 in 10.0 mi West 19.6 mph 25.3 mph N/A   Clear
1:53 PM 69.6 °F - 32.2 °F 25% 29.81 in 10.0 mi West 18.4 mph 25.3 mph N/A   Scattered Clouds
2:13 PM 69.6 °F - 32.0 °F 25% 29.82 in 10.0 mi West 12.7 mph 29.9 mph N/A   Scattered Clouds
2:34 PM 69.6 °F - 31.6 °F 24% 29.82 in 10.0 mi West 11.5 mph 20.7 mph N/A   Mostly Cloudy
2:53 PM 69.3 °F - 31.5 °F 25% 29.82 in 10.0 mi West 11.5 mph 16.1 mph N/A   Scattered Clouds
3:14 PM 70.5 °F - 31.1 °F 23% 29.82 in 10.0 mi WNW 12.7 mph 24.2 mph N/A   Scattered Clouds
3:34 PM 70.7 °F - 30.7 °F 23% 29.82 in 10.0 mi WNW 12.7 mph 23.0 mph N/A   Mostly Cloudy
3:53 PM 70.9 °F - 30.7 °F 23% 29.82 in 10.0 mi West 17.3 mph 26.5 mph N/A   Mostly Cloudy
4:14 PM 71.6 °F - 30.4 °F 22% 29.83 in 10.0 mi West 11.5 mph 18.4 mph N/A   Scattered Clouds
4:34 PM 56.8 °F - 37.9 °F 49% 29.85 in 10.0 mi ENE 20.7 mph 24.2 mph N/A   Scattered Clouds
4:53 PM 56.1 °F - 37.8 °F 50% 29.86 in 10.0 mi ENE 15.0 mph - N/A   Clear
5:14 PM 55.6 °F - 37.9 °F 52% 29.86 in 10.0 mi ENE 16.1 mph - N/A   Clear
5:34 PM 55.6 °F - 38.3 °F 52% 29.87 in 10.0 mi East 6.9 mph - N/A   Clear
5:53 PM 54.7 °F - 39.0 °F 56% 29.88 in 10.0 mi East 9.2 mph - N/A   Scattered Clouds
6:14 PM 51.3 °F - 39.0 °F 63% 29.88 in 10.0 mi East 6.9 mph - N/A   Clear
6:34 PM 52.0 °F - 39.4 °F 62% 29.88 in 10.0 mi ENE 8.1 mph - N/A   Clear
6:53 PM 52.5 °F - 39.0 °F 60% 29.89 in 10.0 mi East 6.9 mph - N/A   Clear
7:14 PM 51.1 °F - 38.7 °F 63% 29.89 in 10.0 mi East 5.8 mph - N/A   Clear
7:33 PM 50.4 °F - 38.5 °F 64% 29.90 in 10.0 mi East 4.6 mph - N/A   Clear
7:54 PM 49.5 °F - 38.7 °F 66% 29.91 in 10.0 mi ESE 3.5 mph - N/A   Clear
8:14 PM 48.6 °F - 38.3 °F 68% 29.91 in 10.0 mi ESE 4.6 mph - N/A   Clear
8:33 PM 48.2 °F - 38.1 °F 68% 29.92 in 10.0 mi ESE 3.5 mph - N/A   Clear
8:54 PM 46.8 °F - 37.6 °F 70% 29.93 in 10.0 mi SE 3.5 mph - N/A   Clear
9:14 PM 46.4 °F - 37.8 °F 72% 29.93 in 10.0 mi Calm Calm - N/A   Clear
9:33 PM 45.7 °F 44.4 °F 37.9 °F 74% 29.93 in 10.0 mi SE 3.5 mph - N/A   Clear
9:54 PM 44.4 °F - 37.9 °F 78% 29.94 in 10.0 mi Calm Calm - N/A   Clear
10:14 PM 43.3 °F - 37.2 °F 79% 29.94 in 10.0 mi Calm Calm - N/A   Clear
10:33 PM 43.0 °F 41.3 °F 37.6 °F 81% 29.95 in 10.0 mi SSW 3.5 mph - N/A   Clear
10:54 PM 41.5 °F - 36.9 °F 83% 29.95 in 10.0 mi Calm Calm - N/A   Clear
11:14 PM 42.3 °F - 37.0 °F 82% 29.95 in 10.0 mi Calm Calm - N/A   Clear
11:33 PM 41.9 °F 40.0 °F 36.9 °F 82% 29.96 in 10.0 mi SW 3.5 mph - N/A   Clear
11:54 PM 41.2 °F - 36.9 °F 85% 29.95 in 10.0 mi Calm Calm - N/A   Clear